When you browse on this site, cookies collect data to enhance your experience and personalize the content and advertising you see.
Visit our Privacy Policy to learn more. By continuing to use the site, you agree to this use of cookies and data.
  • In Lithuania
  • List of Countries
  • For 7 days
  • Water Temperature
  • Satellite Maps
  • Weather Map
  • Weather Widgets
  • user-avatar
    Login

    Hourly Weather Voronino-Yaya

    Today, 21 May, Tuesday

    Time Temperature Precipitation Wind Pressure Humidity
    00:00 +9°C° 0 mm 1 mps 741 mmHg 48%
    01:00 +8°C° 0 mm 1 mps 741 mmHg 50%
    02:00 +8°C° 0 mm 1 mps 740 mmHg 52%
    03:00 +7°C° 0 mm 1 mps 740 mmHg 54%
    04:00 +8°C° 0 mm 1 mps 740 mmHg 54%
    05:00 +9°C° 0 mm 1 mps 740 mmHg 54%
    06:00 +9°C° 0 mm 1 mps 739 mmHg 54%
    07:00 +10°C° 0 mm 1 mps 739 mmHg 54%
    08:00 +11°C° 0 mm 1 mps 739 mmHg 53%
    09:00 +12°C° 0 mm 1 mps 738 mmHg 53%
    10:00 +13°C° 0 mm 2 mps 738 mmHg 48%
    11:00 +15°C° 0 mm 2 mps 738 mmHg 43%
    12:00 +16°C° 0 mm 3 mps 739 mmHg 39%
    13:00 +16°C° 0 mm 3 mps 738 mmHg 41%
    14:00 +14°C° 0 mm 3 mps 738 mmHg 43%
    15:00 +14°C° 0 mm 4 mps 738 mmHg 45%
    16:00 +14°C° 0 mm 3 mps 738 mmHg 47%
    17:00 +14°C° 0 mm 3 mps 738 mmHg 49%
    18:00 +14°C° 0 mm 2 mps 738 mmHg 51%
    19:00 +13°C° 0.3 mm 2 mps 738 mmHg 60%
    20:00 +10°C° 0.3 mm 2 mps 738 mmHg 69%
    21:00 +8°C° 0.3 mm 2 mps 739 mmHg 79%
    22:00 +8°C° 0.1 mm 2 mps 739 mmHg 81%
    23:00 +7°C° 0.1 mm 2 mps 739 mmHg 84%

    Tomorrow, 22 May, Wednesday

    Time Temperature Precipitation Wind Pressure Humidity
    00:00 +7°C° 0.1 mm 2 mps 739 mmHg 86%
    01:00 +6°C° 0 mm 2 mps 739 mmHg 88%
    02:00 +5°C° 0 mm 3 mps 740 mmHg 90%
    03:00 +4°C° 0 mm 3 mps 740 mmHg 92%
    04:00 +5°C° 0 mm 3 mps 740 mmHg 90%
    05:00 +5°C° 0 mm 4 mps 741 mmHg 88%
    06:00 +6°C° 0 mm 4 mps 741 mmHg 85%
    07:00 +7°C° 0.4 mm 4 mps 741 mmHg 81%
    08:00 +8°C° 0.4 mm 4 mps 742 mmHg 76%
    09:00 +9°C° 0.4 mm 5 mps 742 mmHg 71%
    10:00 +10°C° 0.6 mm 5 mps 742 mmHg 66%
    11:00 +12°C° 0.6 mm 5 mps 742 mmHg 61%
    12:00 +13°C° 0.6 mm 6 mps 742 mmHg 56%
    13:00 +13°C° 0.1 mm 6 mps 742 mmHg 50%
    14:00 +14°C° 0.1 mm 6 mps 742 mmHg 44%
    15:00 +15°C° 0.1 mm 5 mps 742 mmHg 38%
    16:00 +15°C° 0 mm 5 mps 742 mmHg 39%
    17:00 +14°C° 0 mm 4 mps 742 mmHg 39%
    18:00 +14°C° 0 mm 4 mps 742 mmHg 40%
    19:00 +12°C° 0 mm 3 mps 741 mmHg 45%
    20:00 +10°C° 0 mm 2 mps 741 mmHg 51%
    21:00 +10°C° 0 mm 1 mps 741 mmHg 56%
    22:00 +9°C° 0.1 mm 1 mps 741 mmHg 60%
    23:00 +7°C° 0.1 mm 2 mps 741 mmHg 63%

    Day after tomorrow, 23 May, Thursday

    Time Temperature Precipitation Wind Pressure Humidity
    00:00 +7°C° 0.1 mm 2 mps 741 mmHg 67%
    01:00 +6°C° 0.1 mm 2 mps 742 mmHg 71%
    02:00 +6°C° 0.1 mm 2 mps 742 mmHg 76%
    03:00 +5°C° 0.1 mm 2 mps 742 mmHg 80%
    04:00 +6°C° 0 mm 2 mps 742 mmHg 79%
    05:00 +6°C° 0 mm 2 mps 743 mmHg 77%
    06:00 +7°C° 0 mm 2 mps 743 mmHg 76%
    07:00 +8°C° 0 mm 3 mps 744 mmHg 69%
    08:00 +10°C° 0 mm 3 mps 744 mmHg 62%
    09:00 +12°C° 0 mm 3 mps 744 mmHg 55%
    10:00 +12°C° 0.1 mm 3 mps 744 mmHg 51%
    11:00 +13°C° 0.1 mm 4 mps 744 mmHg 46%
    12:00 +14°C° 0.1 mm 4 mps 745 mmHg 41%
    13:00 +14°C° 0 mm 4 mps 745 mmHg 37%
    14:00 +14°C° 0 mm 5 mps 745 mmHg 34%
    15:00 +15°C° 0 mm 5 mps 745 mmHg 31%
    16:00 +15°C° 0 mm 4 mps 745 mmHg 31%
    17:00 +14°C° 0 mm 4 mps 745 mmHg 32%
    18:00 +14°C° 0 mm 3 mps 746 mmHg 33%
    19:00 +13°C° 0 mm 2 mps 746 mmHg 38%
    20:00 +10°C° 0 mm 2 mps 747 mmHg 43%
    21:00 +9°C° 0 mm 1 mps 747 mmHg 48%
    22:00 +9°C° 0 mm 1 mps 747 mmHg 49%
    23:00 +8°C° 0 mm 1 mps 747 mmHg 50%

    24 May, Friday

    Time Temperature Precipitation Wind Pressure Humidity
    00:00 +7°C° 0 mm 1 mps 748 mmHg 51%
    01:00 +7°C° 0 mm 2 mps 748 mmHg 52%
    02:00 +7°C° 0 mm 2 mps 748 mmHg 54%
    03:00 +8°C° 0 mm 2 mps 748 mmHg 55%
    04:00 +8°C° 0 mm 3 mps 749 mmHg 57%
    05:00 +9°C° 0 mm 3 mps 749 mmHg 60%
    06:00 +8°C° 0 mm 4 mps 749 mmHg 62%
    07:00 +10°C° 0 mm 5 mps 749 mmHg 55%
    08:00 +11°C° 0 mm 6 mps 749 mmHg 48%
    09:00 +14°C° 0 mm 6 mps 748 mmHg 41%
    10:00 +14°C° 0 mm 7 mps 748 mmHg 40%
    11:00 +15°C° 0 mm 7 mps 748 mmHg 40%
    12:00 +15°C° 0 mm 7 mps 747 mmHg 39%
    13:00 +15°C° 0 mm 7 mps 747 mmHg 40%
    14:00 +15°C° 0 mm 7 mps 747 mmHg 41%
    15:00 +15°C° 0 mm 7 mps 747 mmHg 41%
    16:00 +14°C° 0.8 mm 6 mps 746 mmHg 55%
    17:00 +12°C° 0.8 mm 5 mps 746 mmHg 69%
    18:00 +10°C° 0.8 mm 4 mps 746 mmHg 82%
    19:00 +10°C° 0.4 mm 4 mps 745 mmHg 80%
    20:00 +9°C° 0.4 mm 5 mps 745 mmHg 78%
    21:00 +10°C° 0.4 mm 5 mps 744 mmHg 76%
    22:00 +10°C° 0 mm 5 mps 744 mmHg 74%
    23:00 +11°C° 0 mm 6 mps 743 mmHg 72%

    25 May, Saturday

    Time Temperature Precipitation Wind Pressure Humidity
    00:00 +13°C° 0 mm 6 mps 743 mmHg 71%
    01:00 +13°C° 0.1 mm 6 mps 743 mmHg 71%
    02:00 +13°C° 0.1 mm 6 mps 743 mmHg 72%
    03:00 +13°C° 0.1 mm 6 mps 743 mmHg 72%
    04:00 +13°C° 0.1 mm 6 mps 743 mmHg 71%
    05:00 +13°C° 0.1 mm 6 mps 743 mmHg 70%
    06:00 +13°C° 0.1 mm 6 mps 743 mmHg 69%
    07:00 +14°C° 0.2 mm 6 mps 742 mmHg 67%
    08:00 +15°C° 0.2 mm 6 mps 742 mmHg 66%
    09:00 +16°C° 0.2 mm 6 mps 742 mmHg 64%
    10:00 +18°C° 0 mm 7 mps 741 mmHg 55%
    11:00 +21°C° 0 mm 8 mps 741 mmHg 47%
    12:00 +23°C° 0 mm 9 mps 740 mmHg 38%
    13:00 +23°C° 0 mm 8 mps 740 mmHg 38%
    14:00 +23°C° 0 mm 8 mps 739 mmHg 38%
    15:00 +23°C° 0 mm 8 mps 739 mmHg 39%
    16:00 +21°C° 0.1 mm 8 mps 739 mmHg 44%
    17:00 +20°C° 0.1 mm 7 mps 739 mmHg 50%
    18:00 +19°C° 0.1 mm 6 mps 739 mmHg 56%
    19:00 +16°C° 0.9 mm 5 mps 739 mmHg 68%
    20:00 +14°C° 0.9 mm 4 mps 739 mmHg 79%
    21:00 +12°C° 0.9 mm 3 mps 740 mmHg 90%
    22:00 +11°C° 0.7 mm 3 mps 740 mmHg 89%
    23:00 +10°C° 0.7 mm 4 mps 740 mmHg 88%

    26 May, Sunday

    Time Temperature Precipitation Wind Pressure Humidity
    00:00 +8°C° 0.7 mm 4 mps 741 mmHg 87%
    01:00 +7°C° 0 mm 4 mps 741 mmHg 88%
    02:00 +6°C° 0 mm 4 mps 742 mmHg 89%
    03:00 +5°C° 0 mm 3 mps 742 mmHg 90%
    04:00 +6°C° 0 mm 4 mps 743 mmHg 86%
    05:00 +6°C° 0 mm 4 mps 743 mmHg 83%
    06:00 +6°C° 0 mm 4 mps 744 mmHg 80%
    07:00 +7°C° 0.3 mm 4 mps 744 mmHg 78%
    08:00 +7°C° 0.3 mm 5 mps 743 mmHg 77%
    09:00 +7°C° 0.3 mm 5 mps 743 mmHg 75%
    10:00 +7°C° 0.6 mm 5 mps 743 mmHg 75%
    11:00 +7°C° 0.6 mm 5 mps 743 mmHg 74%
    12:00 +7°C° 0.6 mm 5 mps 744 mmHg 73%
    13:00 +8°C° 0.3 mm 6 mps 744 mmHg 64%
    14:00 +9°C° 0.3 mm 6 mps 745 mmHg 54%
    15:00 +10°C° 0.3 mm 7 mps 746 mmHg 45%
    16:00 +10°C° 0 mm 6 mps 746 mmHg 44%
    17:00 +10°C° 0 mm 6 mps 747 mmHg 43%
    18:00 +10°C° 0 mm 6 mps 747 mmHg 43%
    19:00 +9°C° 0 mm 5 mps 748 mmHg 47%
    20:00 +7°C° 0 mm 4 mps 748 mmHg 51%
    21:00 +6°C° 0 mm 4 mps 749 mmHg 56%
    22:00 +5°C° 0 mm 4 mps 749 mmHg 59%
    23:00 +5°C° 0 mm 4 mps 750 mmHg 62%
    Show more